User: anonymous   Login
Location: Unspecified
(0.0000°N, 0.0000°E)
Time: 18:34:55
(UTC+00:00)
Language:

N. Korean satellite - Orbit

View from above orbital plane
View from above orbital plane
View from above satellite
View from above satellite

Ground track
Ground track

The orbit data is extracted from the following two-line orbital elements,

1 39026U 12072A   17231.04451927 +.00001673 +00000-0 +67210-4 0  9995
2 39026 097.2223 246.7387 0039036 316.4265 043.3892 15.25638539259510
Epoch (UTC): 19 August 2017 01:04:06
Eccentricity: 0.0039036
inclination: 97.2223°
perigee height: 462 km
apogee height: 515 km
right ascension of ascending node: 246.7387°
argument of perigee: 316.4265°
revolutions per day: 15.25638539
mean anomaly at epoch: 43.3892°
orbit number at epoch: 25951

The dashed part of the orbit path shows where the satellite is in the earth's shadow,  

DLR